date,time,DOY,Ta_1_1_1,RH_1_1_1,LWin_1_1_1,LWout_1_1_1,SWin_1_1_1,SWout_1_1_1,PPFD_1_1_1,SWC_1_1_1,Ts_1_1_1
[yyyy-mm-dd],[HH:MM],[ddd.ddd],[K],[%],[W+1m-2],[W+1m-2],[W+1m-2],[W+1m-2],[µmol+1m-2s-1],[m+3m-3],[K]
2013-03-17,00:30,76.020,259.42266666666671,76.890666666666675,-7.5743333333333318,-9999.0,0.27066666666666667,-2.8886666666666660,2.66666666666666658E-003,-9999.0,279.90999999999991
2013-03-17,01:00,76.041,259.20666666666671,76.198666666666668,-6.5186666666666673,-9999.0,0.10766666666666666,-2.0379999999999998,4.99999999999999924E-003,-9999.0,279.90999999999991
2013-03-17,01:30,76.062,259.02533333333332,76.768333333333331,-7.4199999999999999,-9999.0,7.93333333333333390E-002,-2.8069999999999999,6.00000000000000012E-003,-9999.0,279.90999999999991
2013-03-17,02:00,76.083,258.63100000000009,75.929666666666648,-9.3078571428571433,-9999.0,0.33900000000000008,-3.5200000000000000,5.66666666666666794E-003,-9999.0,279.90999999999991
2013-03-17,02:30,76.104,258.31533333333334,75.021333333333345,-9999.0,-9999.0,0.57533333333333336,-4.0826666666666673,3.66666666666666660E-003,-9999.0,279.90999999999991
2013-03-17,03:00,76.124,257.97366666666665,72.827666666666659,-9999.0,-9999.0,0.51266666666666671,-4.0006666666666666,1.66666666666666677E-003,-9999.0,279.90999999999991
2013-03-17,03:30,76.145,257.55633333333333,70.811999999999998,-9999.0,-9999.0,0.35766666666666663,-4.1523333333333330,6.66666666666666644E-004,-9999.0,279.90999999999991
2013-03-17,04:00,76.166,257.55633333333333,68.141666666666680,-9999.0,-9999.0,0.67700000000000005,-3.5306666666666677,5.33333333333333402E-003,-9999.0,279.90999999999991
2013-03-17,04:30,76.187,257.50666666666666,68.289000000000001,-9999.0,-9999.0,0.14099999999999996,-2.8716666666666666,5.66666666666666881E-003,-9999.0,279.90999999999991
2013-03-17,05:00,76.208,257.14299999999997,70.910000000000011,-9999.0,-9999.0,1.06666666666666767E-002,-3.7049999999999996,-2.99999999999999963E-003,-9999.0,279.90999999999991
2013-03-17,05:30,76.229,256.88200000000001,73.490333333333339,-9999.0,-9999.0,-4.83333333333333323E-002,-3.9720000000000004,4.33333333333333313E-003,-9999.0,279.90999999999991
2013-03-17,06:00,76.249,256.84900000000005,74.552666666666653,-9999.0,-9999.0,0.18533333333333335,-2.8903333333333339,0.70733333333333326,-9999.0,279.90999999999991
2013-03-17,06:30,76.270,257.20666666666671,72.384999999999991,-9999.0,-9999.0,4.3743333333333334,16.090666666666667,23.709333333333337,-9999.0,279.90999999999991
2013-03-17,07:00,76.291,257.41900000000010,73.085999999999999,-9999.0,-9999.0,19.693333333333339,92.510333333333293,131.09433333333334,-9999.0,279.90999999999991
2013-03-17,07:30,76.312,257.71433333333340,74.269000000000005,-9999.0,-9999.0,33.768666666666661,172.34000000000000,281.05633333333338,-9999.0,279.90999999999991
2013-03-17,08:00,76.333,257.95333333333332,72.866666666666688,-9.5160000000000000,-9999.0,50.004999999999995,268.72300000000001,456.35233333333332,-9999.0,279.90999999999991
2013-03-17,08:30,76.354,258.31366666666673,69.914333333333332,-8.3233333333333341,-9999.0,67.820333333333323,360.29733333333326,629.90866666666682,-9999.0,279.90999999999991
2013-03-17,09:00,76.374,259.05933333333331,64.838666666666668,-7.0686666666666680,-9999.0,84.606666666666669,443.77600000000007,797.98099999999999,-9999.0,279.90999999999991
2013-03-17,09:30,76.395,259.69433333333342,62.686000000000014,-5.7156666666666665,-9999.0,100.45966666666665,526.62833333333333,962.56899999999985,-9999.0,279.90999999999991
2013-03-17,10:00,76.416,260.57100000000003,58.502666666666656,-4.9153333333333338,-9999.0,118.16766666666665,596.60666666666668,1108.4579999999999,-9999.0,279.90999999999991
2013-03-17,10:30,76.437,260.85000000000002,55.084333333333340,-2.7433333333333332,-9999.0,133.66800000000001,652.92233333333343,1222.3589999999999,-9999.0,279.90999999999991
2013-03-17,11:00,76.458,261.89100000000008,51.246666666666663,-2.2716666666666661,-9999.0,143.41766666666666,697.28033333333360,1317.6220000000005,-9999.0,279.90999999999991
2013-03-17,11:30,76.479,262.90466666666669,44.789666666666676,-2.0783333333333331,-9999.0,151.60800000000000,726.54233333333332,1384.2086666666669,-9999.0,279.90999999999991
2013-03-17,12:00,76.499,263.92866666666669,40.913333333333327,-1.9020000000000004,-9999.0,158.45300000000003,743.24166666666645,1420.7589999999998,-9999.0,279.90999999999991
2013-03-17,12:30,76.520,264.96333333333342,37.643000000000008,-2.5910000000000006,-9999.0,157.87566666666666,745.58200000000011,1429.1153333333334,-9999.0,279.90999999999991
2013-03-17,13:00,76.541,265.43666666666667,36.007666666666658,-2.5363333333333333,-9999.0,155.22899999999996,733.78200000000004,1405.3780000000002,-9999.0,279.90999999999991
2013-03-17,13:30,76.562,266.13800000000009,34.598333333333336,-3.0283333333333333,-9999.0,146.90400000000002,706.22433333333333,1354.4629999999995,-9999.0,279.90999999999991
2013-03-17,14:00,76.583,266.56500000000005,33.987999999999992,-5.0356666666666676,-9999.0,133.25233333333333,662.00100000000009,1271.4616666666668,-9999.0,279.90999999999991
2013-03-17,14:30,76.604,267.30133333333333,32.881999999999998,-5.9210000000000003,-9999.0,118.61300000000001,607.25066666666669,1163.9010000000001,-9999.0,279.90999999999991
2013-03-17,15:00,76.624,267.41966666666667,32.373333333333328,-6.5569999999999995,-9999.0,102.02000000000002,537.34600000000012,1024.5616666666667,-9999.0,279.90999999999991
2013-03-17,15:30,76.645,267.93300000000005,30.928666666666665,-7.1786666666666665,-9999.0,86.988333333333301,464.84166666666681,877.93900000000008,-9999.0,279.90999999999991
2013-03-17,16:00,76.666,268.28166666666664,30.408999999999995,-8.5369999999999990,-9999.0,69.308333333333351,381.37866666666679,711.91566666666654,-9999.0,279.90999999999991
2013-03-17,16:30,76.687,268.36033333333330,29.718333333333341,-9.1689285714285749,-9999.0,49.392333333333340,270.90866666666665,501.67166666666668,-9999.0,279.90999999999991
2013-03-17,17:00,76.708,268.38266666666675,30.019333333333336,-9.9299999999999997,-9999.0,35.878000000000007,191.54533333333339,346.92599999999999,-9999.0,279.90999999999991
2013-03-17,17:30,76.729,268.15300000000002,29.993666666666666,-9999.0,-9999.0,21.599666666666671,106.59633333333333,189.63866666666664,-9999.0,279.90999999999991
2013-03-17,18:00,76.749,267.74633333333338,30.549333333333340,-9999.0,-9999.0,6.3040000000000012,25.930999999999997,56.914333333333310,-9999.0,279.90999999999991
2013-03-17,18:30,76.770,267.16566666666671,32.857000000000006,-9999.0,-9999.0,0.55633333333333324,-1.7803333333333333,5.3916666666666675,-9999.0,279.90999999999991
2013-03-17,19:00,76.791,266.67299999999994,34.750000000000000,-9999.0,-9999.0,0.17666666666666669,-3.6666666666666661,5.30000000000000124E-002,-9999.0,279.90999999999991
2013-03-17,19:30,76.812,266.24399999999997,38.116666666666660,-9999.0,-9999.0,0.17766666666666669,-3.4173333333333336,8.00000000000000190E-003,-9999.0,279.90999999999991
2013-03-17,20:00,76.833,265.89499999999992,42.643999999999991,-9.0588235294117645,-9999.0,0.11366666666666667,-2.7216666666666662,2.33333333333333353E-003,-9999.0,279.90999999999991
2013-03-17,20:30,76.854,265.55000000000007,46.149333333333338,-8.8646666666666665,-9999.0,-7.70000000000000129E-002,-2.4866666666666668,1.00000000000000002E-003,-9999.0,279.90999999999991
2013-03-17,21:00,76.874,265.10066666666671,52.773666666666671,-7.6269999999999998,-9999.0,-5.30000000000000124E-002,-2.1236666666666664,3.33333333333333322E-004,-9999.0,279.90999999999991
2013-03-17,21:30,76.895,264.79800000000006,59.074666666666666,-6.8843333333333323,-9999.0,-1.13333333333333341E-002,-2.0240000000000000,1.00000000000000002E-003,-9999.0,279.90999999999991
2013-03-17,22:00,76.916,264.46533333333332,62.700333333333347,-5.9313333333333338,-9999.0,-0.13433333333333333,-1.3866666666666667,1.00000000000000002E-003,-9999.0,279.90999999999991
2013-03-17,22:30,76.937,264.11433333333338,64.490333333333325,-7.0869999999999989,-9999.0,-1.06666666666666646E-002,-2.3196666666666670,4.33333333333333313E-003,-9999.0,279.90999999999991
2013-03-17,23:00,76.958,263.79633333333334,67.201333333333338,-5.8430000000000000,-9999.0,-7.80000000000000138E-002,-1.4243333333333330,3.33333333333333322E-004,-9999.0,279.90999999999991
2013-03-17,23:30,76.979,263.64566666666673,70.139666666666670,-4.4946666666666664,-9999.0,-0.20633333333333337,-0.63266666666666671,1.66666666666666677E-003,-9999.0,279.90999999999991
2013-03-18,00:00,77.000,263.47966666666667,72.489666666666679,-4.2396666666666656,-9999.0,-0.21233333333333346,-0.63466666666666671,1.00000000000000002E-003,-9999.0,279.90999999999991
